When you browse on this site, cookies collect data to enhance your experience and personalize the content and advertising you see.
Visit our Privacy Policy to learn more. By continuing to use the site, you agree to this use of cookies and data.
  • In Czech Republic
  • List of Countries
  • For 7 days
  • Water Temperature
  • Satellite Maps
  • Weather Map
  • Weather Widgets
  • user-avatar
    Login

    Hourly Weather Labé

    Today, 22 July, Monday

    Time Temperature Precipitation Wind Pressure Humidity
    00:00 +21°C° 0.5 mm 1 mps 673 mmHg 96%
    01:00 +20°C° 0.5 mm 1 mps 672 mmHg 96%
    02:00 +20°C° 0.5 mm 1 mps 672 mmHg 97%
    03:00 +20°C° 0.9 mm 1 mps 672 mmHg 97%
    04:00 +20°C° 0.9 mm 1 mps 672 mmHg 97%
    05:00 +20°C° 0.9 mm 1 mps 672 mmHg 97%
    06:00 +21°C° 0 mm 1 mps 673 mmHg 96%
    07:00 +21°C° 0 mm 1 mps 673 mmHg 95%
    08:00 +21°C° 0 mm 1 mps 673 mmHg 95%
    09:00 +23°C° 0.4 mm 2 mps 673 mmHg 91%
    10:00 +24°C° 0.4 mm 2 mps 674 mmHg 87%
    11:00 +25°C° 0.4 mm 3 mps 674 mmHg 82%
    12:00 +25°C° 1.3 mm 2 mps 673 mmHg 82%
    13:00 +25°C° 1.3 mm 2 mps 673 mmHg 82%
    14:00 +26°C° 1.3 mm 1 mps 672 mmHg 82%
    15:00 +25°C° 1.6 mm 1 mps 672 mmHg 85%
    16:00 +25°C° 1.6 mm 1 mps 671 mmHg 88%
    17:00 +24°C° 1.6 mm 1 mps 671 mmHg 91%
    18:00 +23°C° 0.4 mm 1 mps 671 mmHg 92%
    19:00 +20°C° 0.4 mm 0 mps 671 mmHg 93%
    20:00 +20°C° 0.4 mm 0 mps 672 mmHg 93%
    21:00 +19°C° 0.5 mm 0 mps 672 mmHg 93%
    22:00 +19°C° 0.5 mm 0 mps 672 mmHg 92%
    23:00 +19°C° 0.5 mm 0 mps 672 mmHg 92%

    Tomorrow, 23 July, Tuesday

    Time Temperature Precipitation Wind Pressure Humidity
    00:00 +19°C° 0.5 mm 0 mps 672 mmHg 93%
    01:00 +19°C° 0.5 mm 0 mps 672 mmHg 94%
    02:00 +18°C° 0.5 mm 0 mps 671 mmHg 95%
    03:00 +18°C° 0.4 mm 0 mps 671 mmHg 95%
    04:00 +18°C° 0.4 mm 0 mps 671 mmHg 95%
    05:00 +18°C° 0.4 mm 0 mps 671 mmHg 95%
    06:00 +19°C° 0 mm 0 mps 672 mmHg 93%
    07:00 +20°C° 0 mm 0 mps 673 mmHg 91%
    08:00 +21°C° 0 mm 0 mps 673 mmHg 89%
    09:00 +23°C° 0 mm 0 mps 673 mmHg 82%
    10:00 +26°C° 0 mm 1 mps 673 mmHg 76%
    11:00 +27°C° 0 mm 2 mps 673 mmHg 70%
    12:00 +27°C° 0.8 mm 2 mps 673 mmHg 73%
    13:00 +27°C° 0.8 mm 2 mps 672 mmHg 76%
    14:00 +27°C° 0.8 mm 3 mps 671 mmHg 80%
    15:00 +26°C° 1.2 mm 3 mps 671 mmHg 83%
    16:00 +25°C° 1.2 mm 3 mps 671 mmHg 86%
    17:00 +24°C° 1.2 mm 3 mps 671 mmHg 89%
    18:00 +22°C° 0.2 mm 3 mps 671 mmHg 91%
    19:00 +21°C° 0.2 mm 2 mps 672 mmHg 94%
    20:00 +20°C° 0.2 mm 2 mps 672 mmHg 96%
    21:00 +20°C° 0 mm 2 mps 672 mmHg 96%
    22:00 +19°C° 0 mm 2 mps 673 mmHg 96%
    23:00 +19°C° 0 mm 2 mps 673 mmHg 96%

    Day after tomorrow, 24 July, Wednesday

    Time Temperature Precipitation Wind Pressure Humidity
    00:00 +19°C° 0 mm 2 mps 672 mmHg 96%
    01:00 +19°C° 0 mm 2 mps 672 mmHg 96%
    02:00 +19°C° 0 mm 2 mps 672 mmHg 96%
    03:00 +19°C° 0.3 mm 2 mps 672 mmHg 97%
    04:00 +19°C° 0.3 mm 2 mps 672 mmHg 97%
    05:00 +20°C° 0.3 mm 1 mps 672 mmHg 97%
    06:00 +19°C° 0.8 mm 2 mps 672 mmHg 97%
    07:00 +19°C° 0.8 mm 2 mps 673 mmHg 97%
    08:00 +19°C° 0.8 mm 2 mps 673 mmHg 97%
    09:00 +21°C° 1 mm 1 mps 673 mmHg 96%
    10:00 +21°C° 1 mm 1 mps 673 mmHg 96%
    11:00 +21°C° 1 mm 1 mps 673 mmHg 95%
    12:00 +21°C° 0.3 mm 1 mps 673 mmHg 95%
    13:00 +21°C° 0.3 mm 1 mps 672 mmHg 94%
    14:00 +21°C° 0.3 mm 1 mps 672 mmHg 94%
    15:00 +20°C° 0.2 mm 2 mps 672 mmHg 94%
    16:00 +20°C° 0.2 mm 2 mps 671 mmHg 93%
    17:00 +20°C° 0.2 mm 2 mps 671 mmHg 93%
    18:00 +20°C° 0 mm 2 mps 672 mmHg 94%
    19:00 +20°C° 0 mm 2 mps 672 mmHg 96%
    20:00 +20°C° 0 mm 1 mps 673 mmHg 97%
    21:00 +20°C° 0 mm 1 mps 673 mmHg 97%
    22:00 +20°C° 0 mm 1 mps 673 mmHg 98%
    23:00 +20°C° 0 mm 1 mps 673 mmHg 98%

    25 July, Thursday

    Time Temperature Precipitation Wind Pressure Humidity
    00:00 +20°C° 0.1 mm 1 mps 673 mmHg 98%
    01:00 +20°C° 0.1 mm 1 mps 673 mmHg 98%
    02:00 +20°C° 0.1 mm 1 mps 673 mmHg 98%
    03:00 +20°C° 0 mm 1 mps 673 mmHg 98%
    04:00 +20°C° 0 mm 1 mps 673 mmHg 97%
    05:00 +18°C° 0 mm 0 mps 673 mmHg 97%
    06:00 +19°C° 0.1 mm 0 mps 673 mmHg 95%
    07:00 +21°C° 0.1 mm 1 mps 674 mmHg 92%
    08:00 +22°C° 0.1 mm 1 mps 674 mmHg 89%
    09:00 +23°C° 1.2 mm 1 mps 674 mmHg 87%
    10:00 +24°C° 1.2 mm 1 mps 674 mmHg 85%
    11:00 +25°C° 1.2 mm 1 mps 674 mmHg 83%
    12:00 +25°C° 2.9 mm 1 mps 674 mmHg 83%
    13:00 +25°C° 2.9 mm 1 mps 673 mmHg 83%
    14:00 +25°C° 2.9 mm 1 mps 673 mmHg 84%
    15:00 +25°C° 2.5 mm 1 mps 673 mmHg 87%
    16:00 +24°C° 2.5 mm 1 mps 672 mmHg 89%
    17:00 +23°C° 2.5 mm 1 mps 672 mmHg 92%
    18:00 +22°C° 0.3 mm 1 mps 672 mmHg 94%
    19:00 +22°C° 0.3 mm 1 mps 673 mmHg 95%
    20:00 +21°C° 0.3 mm 1 mps 673 mmHg 97%
    21:00 +21°C° 0 mm 1 mps 673 mmHg 97%
    22:00 +20°C° 0 mm 1 mps 674 mmHg 98%
    23:00 +20°C° 0 mm 1 mps 674 mmHg 98%

    26 July, Friday

    Time Temperature Precipitation Wind Pressure Humidity
    00:00 +20°C° 0 mm 1 mps 673 mmHg 98%
    01:00 +20°C° 0 mm 1 mps 673 mmHg 98%
    02:00 +20°C° 0 mm 1 mps 673 mmHg 98%
    03:00 +20°C° 0 mm 1 mps 673 mmHg 98%
    04:00 +20°C° 0 mm 1 mps 673 mmHg 98%
    05:00 +20°C° 0 mm 1 mps 673 mmHg 98%
    06:00 +21°C° 0 mm 1 mps 673 mmHg 96%
    07:00 +22°C° 0 mm 1 mps 674 mmHg 94%
    08:00 +22°C° 0 mm 1 mps 674 mmHg 92%
    09:00 +23°C° 0.2 mm 1 mps 674 mmHg 87%
    10:00 +25°C° 0.2 mm 2 mps 674 mmHg 82%
    11:00 +26°C° 0.2 mm 2 mps 675 mmHg 76%
    12:00 +26°C° 0.5 mm 1 mps 674 mmHg 76%
    13:00 +27°C° 0.5 mm 1 mps 673 mmHg 75%
    14:00 +27°C° 0.5 mm 1 mps 673 mmHg 74%
    15:00 +26°C° 1.8 mm 1 mps 672 mmHg 80%
    16:00 +25°C° 1.8 mm 1 mps 672 mmHg 86%
    17:00 +24°C° 1.8 mm 1 mps 672 mmHg 92%
    18:00 +23°C° 2.3 mm 1 mps 672 mmHg 93%
    19:00 +22°C° 2.3 mm 1 mps 672 mmHg 95%
    20:00 +22°C° 2.3 mm 1 mps 673 mmHg 96%
    21:00 +21°C° 1.9 mm 1 mps 673 mmHg 96%
    22:00 +21°C° 1.9 mm 1 mps 673 mmHg 96%
    23:00 +19°C° 1.9 mm 0 mps 674 mmHg 97%

    27 July, Saturday

    Time Temperature Precipitation Wind Pressure Humidity
    00:00 +21°C° 1.7 mm 1 mps 673 mmHg 96%
    01:00 +21°C° 1.7 mm 1 mps 673 mmHg 96%
    02:00 +21°C° 1.7 mm 1 mps 672 mmHg 95%
    03:00 +21°C° 1.3 mm 1 mps 672 mmHg 95%
    04:00 +21°C° 1.3 mm 1 mps 672 mmHg 95%
    05:00 +21°C° 1.3 mm 1 mps 672 mmHg 95%
    06:00 +21°C° 1.3 mm 1 mps 673 mmHg 94%
    07:00 +22°C° 1.3 mm 1 mps 673 mmHg 92%
    08:00 +23°C° 1.3 mm 1 mps 674 mmHg 91%
    09:00 +24°C° 0.3 mm 1 mps 674 mmHg 85%
    10:00 +26°C° 0.3 mm 1 mps 674 mmHg 79%
    11:00 +27°C° 0.3 mm 1 mps 674 mmHg 73%
    12:00 +27°C° 0.7 mm 1 mps 674 mmHg 75%
    13:00 +27°C° 0.7 mm 1 mps 673 mmHg 77%
    14:00 +27°C° 0.7 mm 1 mps 672 mmHg 80%
    15:00 +26°C° 2.9 mm 1 mps 672 mmHg 84%
    16:00 +25°C° 2.9 mm 1 mps 672 mmHg 88%
    17:00 +22°C° 2.9 mm 0 mps 672 mmHg 92%
    18:00 +21°C° 1.6 mm 0 mps 672 mmHg 93%
    19:00 +20°C° 1.6 mm 0 mps 672 mmHg 94%
    20:00 +20°C° 1.6 mm 0 mps 672 mmHg 94%
    21:00 +19°C° 0.3 mm 0 mps 673 mmHg 95%
    22:00 +19°C° 0.3 mm 0 mps 673 mmHg 95%
    23:00 +21°C° 0.3 mm 1 mps 673 mmHg 96%
    Show more